Regional Weather Roundup
Issued by NWS

Home | Current Version | Previous Version | Text Only | Print | Product List | Glossary Off
Versions: 1 2 3 4 5 6 7 8 9 10 11 12 13 14 15 16 17 18 19 20 21 22 23 24 25 26 27 28 29 30 31 32 33 34 35 36 37 38 39 40 41 42 43 44 45 46 47 48 49 50

132
ASUS45 KTFX 260210
RWRMT
MONTANA REGIONAL WEATHER ROUNDUP
NATIONAL WEATHER SERVICE GREAT FALLS MT
700 PM MST SAT FEB 25 2017

NOTE: "FAIR" INDICATES FEW OR NO CLOUDS BELOW 12000 FEET WITH NO
SIGNIFICANT WEATHER AND/OR OBSTRUCTIONS TO VISIBILITY.

MTZ001>007-043-260300-
WEST OF THE DIVIDE

CITY           SKY/WX    TMP DP  RH WIND       PRES   REMARKS
KALISPELL      CLOUDY    27  17  66 SW9       29.82S WCI  18
MISSOULA       MOCLDY    27  14  58 NW5       29.88F
BUTTE          CLOUDY    21   2  43 W7        29.76S WCI  12
MULLAN PASS    LGT SNOW  14  13  95 VRB7      29.73F FOG     WCI   4
ANACONDA         N/A     21   5  49 W8        29.79S WCI  12
DEER LODGE       N/A     25   7  46 NW12      29.80F WCI  14
EUREKA           N/A     28  18  64 SE7       29.82F WCI  21
HAMILTON         N/A     28   9  43 S8        29.87F WCI  20
LIBBY            N/A     28  18  64 SE8       29.83F WCI  20
RONAN            N/A     28  16  61 E3        29.91S
$$

MTZ008-052>055-260300-
SOUTHWEST MONTANA

CITY           SKY/WX    TMP DP  RH WIND       PRES   REMARKS
BOZEMAN        CLOUDY    25  10  53 CALM      29.78R
DILLON         CLEAR     22   9  57 SW21      29.77F WCI   6
W YELLOWSTONE  LGT SNOW  10   5  79 SW13G20   29.77S WCI  -5
ENNIS          CLOUDY    23   9  54 SW8G14    29.83S WCI  14
THREE FORKS      N/A     28  28 100 W5        29.79S
TWIN BRIDGES     N/A     23   1  38 CALM      29.80F
$$

MTZ009-010-012-014-046-048-049-054-260300-
EAST SLOPES AND CENTRAL MONTANA

CITY           SKY/WX    TMP DP  RH WIND       PRES   REMARKS
CUT BANK       PTCLDY    24  12  60 W31G40    29.56F WCI   7
GREAT FALLS    CLOUDY    26   6  42 SW16G26   29.64F WCI  14
MALMSTROM AFB  CLOUDY    28   7  40 W17G26    29.66F WCI  16
HELENA         CLOUDY    28   7  41 W16G24    29.76S WCI  16
AUGUSTA          N/A     24   6  46 W29G36    29.61F WCI   7
BOWMANS CRNR   MOCLDY    23   7  49 SW17      29.63F WCI   9
CHOTEAU          N/A     27   7  43 SW14G22   29.61F WCI  15
POWER            N/A     25   8  49 W17       29.61F WCI  12
RAYNESFORD       N/A     25  10  51 SW18      29.64F WCI  12
ULM            MOCLDY    26  10  51 MISG      29.67F
$$

MTZ011-013-016-021-045-047-050-051-260300-
NORTH CENTRAL MONTANA

CITY           SKY/WX    TMP DP  RH WIND       PRES   REMARKS
HAVRE          CLOUDY    28  19  69 W7        29.62F WCI  21
LEWISTOWN      CLOUDY    20   8  60 SW7       29.62F WCI  11
N BAR RANCH      N/A     21   7  53 W9        29.63F WCI  11
CHINOOK          N/A     27  18  69 CALM      29.63F
DENTON           N/A     28  11  50 W22G31    29.59F WCI  13
FORT BENTON      N/A     30  10  43 MISG      29.65F
GEYSER         MOCLDY    25  10  52 W17       29.61S WCI  11
GRASS RANGE      N/A     25  11  55 W12       29.59F WCI  14
JUDITH GAP       N/A     17   4  58 NW6       29.62S WCI   8
ROY            MOCLDY    24  15  69 MISG      29.61S
STANFORD       MOCLDY    23  10  57 W15G22    29.61F WCI  10
WINIFRED       MOCLDY    24  14  64 W6        29.61F WCI  17
$$

MTZ017>020-022>027-061-062-260300-
NORTHEAST MONTANA

CITY           SKY/WX    TMP DP  RH WIND       PRES   REMARKS
GLASGOW        MOCLDY    20  15  81 E8        29.66S WCI  10
JORDAN           N/A     27  19  72 W5        29.66S
SIDNEY         CLOUDY    18  14  84 N10       29.70R WCI   6
WOLF POINT     PTCLDY    17  12  80 NE7       29.71S WCI   8
PLENTYWOOD       N/A     10   9  92 N5        29.68S
POPLAR           N/A     12   9  85 NE6       29.72S WCI   3
SCOBEY           N/A      6  -3  66 CALM      29.67F
$$

MTZ028>42-056>058-260300-
SOUTHCENTRAL AND SOUTHEAST MONTANA

CITY           SKY/WX    TMP DP  RH WIND       PRES   REMARKS
BAKER          CLOUDY    25  20  81 W10       29.66S WCI  15
BILLINGS       PTCLDY    27  14  58 W20       29.68S WCI  13
LIVINGSTON     CLOUDY    26   7  44 W18G33    29.71R WCI  13
MILES CITY     MOCLDY    27  18  69 NW6       29.69R WCI  20
BIG TIMBER     HAZE      23  14  68 W38G49    29.65F VSB 1   WCI   4
EKALAKA          N/A     22  15  74 W12       29.66S WCI  11
FORSYTH          N/A     28  14  54 CALM      29.69R
HARLOWTON        N/A     22  10  59 W10       29.65R WCI  11
LAUREL           N/A     27  10  48 W13       29.69F WCI  16
$$

REGIONAL REPORTS...DAKOTAS

CITY           SKY/WX    TMP DP  RH WIND       PRES   REMARKS
WILLISTON      CLOUDY    14  11  87 N7        29.70S WCI   4
MINOT          LGT SNOW  17  13  84 N9        29.68F VSB 1   WCI   6
DICKINSON      CLOUDY    20  16  84 W9        29.61F WCI   9
BEACH            N/A    N/A N/A N/A MISG        N/A
CROSBY           N/A     12  12 100 CALM      29.72S
TIOGA          CLOUDY    10  10 100 N6        29.68S WCI   1
WATFORD CITY   MOCLDY    16  14  93 N6        29.69R WCI   7
BISMARCK       CLOUDY    24  20  84 S6        29.68F WCI  17
GRAND FORKS    CLOUDY    22  11  62 N14       29.75S WCI   9
FARGO          CLOUDY    27  21  78 W7        29.74F WCI  19
BUFFALO SD       N/A     24  20  84 W12       29.61S WCI  13
RAPID CITY     CLEAR     20  16  84 W7        29.70R WCI  11
$$

REGIONAL REPORTS...WYOMING/IDAHO/WASHINGTON

CITY           SKY/WX    TMP DP  RH WIND       PRES   REMARKS
GILLETTE       MOCLDY    21  18  88 W5        29.67R
SHERIDAN       CLOUDY    25  18  74 S8        29.70R WCI  16
BUFFALO WY     PTCLDY    16   5  62 W8        29.67R WCI   5
CODY           CLEAR     22   1  40 W22G36    29.67S WCI   6
YELLOWSTONE LA   N/A      4  -1  80 CALM      29.74R
IDAHO FALLS    PTCLDY    18  12  77 SW15      29.93S WCI   4
SALMON         MOCLDY    28  12  50 W6        29.87F WCI  22
BOISE          CLEAR     36  13  38 CALM      30.00F
SPOKANE        CLOUDY    32  22  66 SW10      29.90F WCI  24
$$

REGIONAL REPORTS...ALBERTA

CITY           SKY/WX    TMP DP  RH WIND       PRES   REMARKS
EDMONTON       LGT SNOW  19  18  93 NW5       29.64S
CALGARY        CLOUDY    23  16  74 N9        29.55R WCI  13
LETHBRIDGE     CLOUDY    30  12  47 W30G41    29.52F WCI  15
MEDICINE HAT   CLOUDY    23  18  80 SE3       29.58F
WATERTON GATE    N/A     23  12  63 SW32G44     N/A  WCI   5
MILK RIVER       N/A     27  16  63 W15         N/A  WCI  15
$$

REGIONAL REPORTS...SASKATCHEWAN

CITY           SKY/WX    TMP DP  RH WIND       PRES   REMARKS
SWIFT CURRENT  FLURRIES  14  12  92 S7        29.59F WCI   4
REGINA         PTCLDY     9   3  78 S3        29.68F
SASKATOON      MOCLDY    14   9  79 S6        29.66F WCI   5
CYPRESS HILLS    N/A     14   3  62 W3          N/A
VAL MARIE        N/A     14  10  85 SE8         N/A  WCI   3
ASSINIBOIA       N/A     21  16  79 NW8         N/A  WCI  12
$$




USA.gov is the U.S. government's official web portal to all federal, state and local government web resources and services.